Retour au catalogue

NOAA 17 DEB

ActifPO
NORAD 48761·DEBRIS·🇺🇸 United States

Lancé Jun 24, 2002 depuis Vandenberg Space Force Base

Loading…

Prochains Passages (prochaines 24 heures)

TLE

FraisSource: Space-Track

Époque: Sep 14, 2026, 06:32 UTC

1 48761U 02032CW  26257.27285883  .00008607  00000-0  13441-2 0  9994
2 48761  98.7147 267.3861 0003202  24.3711 335.7646 14.73105966286194

Suivez NOAA 17 DEB en temps réel avec AllMySat

Download on the App Store